Weather History for KDGW - May, 2014

Change the Weather History Date:

Monday, May 26, 2014

  Actual Average Record
Temperature  
Mean Temperature 62 °F 57 °F  
Max Temperature 78 °F 72 °F 92 °F (2006)
Min Temperature 46 °F 42 °F 31 °F (2007)
Degree Days  
Heating Degree Days 3 9  
Month to date heating degree days 339 334  
Since 1 July heating degree days 7458 7291  
Cooling Degree Days 0 0  
Month to date cooling degree days 0 0  
Year to date cooling degree days 0 0  
Growing Degree Days 12 (Base 50)    
Moisture  
Dew Point 48 °F    
Average Humidity 63    
Maximum Humidity 93    
Minimum Humidity 33    
Precipitation  
Precipitation T in 0.08 in 0.32 in (2012)
Month to date precipitation 1.93 2.10  
Year to date precipitation 5.48 5.25  
Sea Level Pressure  
Sea Level Pressure 29.95 in    
Wind  
Wind Speed 5 mph (WSW)    
Max Wind Speed 18 mph    
Max Gust Speed 20 mph    
Visibility 8 miles    
Events Fog    
T = Trace of Precipitation, MM = Missing Value Source: NWS Daily Summary

Daily Weather History Graph

Daily Weather History Graph

Search for Another Location

Airport or City:

Trip Planner

Search our weather history database for the weather conditions in past years. The results will help you decide how hot, cold, wet, or windy it might be!

Date:

Astronomy

May. 26, 2014 Rise Set
Actual Time 5:29 AM MDT 8:28 PM MDT
Civil Twilight 4:55 AM MDT 9:02 PM MDT
Nautical Twilight 4:12 AM MDT 9:45 PM MDT
Astronomical Twilight 3:22 AM MDT 10:35 PM MDT
Moon 4:16 AM MDT (5/26) 6:30 PM MDT (5/26)
Length of Visible Light 16h 06m
Length of Day
14h 59m
Waning Crescent, 4% of the Moon is Illuminated
May 26
Waning Crescent
May 28
New
Jun 5
First Quarter
Jun 12
Full
Jun 19
Last Quarter

Hourly Weather History & Observations

Time (MDT) Temp. Windchill Dew Point Humidity Pressure Visibility Wind Dir Wind Speed Gust Speed Precip Events Conditions
12:53 AM 53.1 °F - 48.9 °F 86% 29.94 in 10.0 mi NW 3.5 mph - N/A   Clear
1:53 AM 53.1 °F - 50.0 °F 89% 29.93 in 10.0 mi South 3.5 mph - N/A   Clear
3:53 AM 48.0 °F - 46.9 °F 96% 29.95 in 10.0 mi Calm Calm - N/A   Clear
4:53 AM 48.0 °F - 46.0 °F 93% 29.96 in 10.0 mi WNW 3.5 mph - N/A   Clear
5:15 AM 46.0 °F 43.9 °F 44.1 °F 93% 30.06 in 6.0 mi North 4.6 mph - N/A   Scattered Clouds
5:19 AM 46.0 °F 43.9 °F 44.1 °F 93% 30.06 in 1.8 mi North 4.6 mph - N/A   Scattered Clouds
5:30 AM 46.0 °F 44.8 °F 46.0 °F 100% 30.06 in 4.0 mi NE 3.5 mph - N/A   Scattered Clouds
6:16 AM 46.0 °F 43.1 °F 45.0 °F 96% 30.07 in 1.8 mi NW 5.8 mph - N/A   Partly Cloudy
6:18 AM 46.0 °F 43.1 °F 45.0 °F 96% 30.07 in 0.5 mi NW 5.8 mph - N/A Fog Fog
6:32 AM 46.9 °F - 46.0 °F 97% 30.07 in 1.2 mi NW 5.8 mph - N/A   Scattered Clouds
6:35 AM 46.9 °F - 46.0 °F 97% 30.07 in 3.0 mi NW 4.6 mph - N/A   Scattered Clouds
6:53 AM 50.0 °F - 48.0 °F 93% 29.98 in 10.0 mi Calm Calm - N/A   Partly Cloudy
7:53 AM 55.9 °F - 50.0 °F 80% 29.97 in 10.0 mi NW 5.8 mph - N/A   Clear
8:53 AM 60.1 °F - 50.0 °F 69% 29.97 in 10.0 mi WNW 4.6 mph - N/A   Clear
9:53 AM 66.0 °F - 48.9 °F 54% 29.96 in 10.0 mi Calm Calm - N/A   Clear
11:53 AM 71.1 °F - 50.0 °F 47% 29.93 in 10.0 mi Calm Calm - N/A   Clear
12:53 PM 73.0 °F - 48.0 °F 41% 29.91 in 10.0 mi North - - N/A   Clear
1:53 PM 75.0 °F - 48.0 °F 38% 29.88 in 10.0 mi SW 5.8 mph - N/A   Clear
2:53 PM 77.0 °F - 46.9 °F 34% 29.87 in 10.0 mi Calm Calm - N/A   Clear
3:53 PM 75.9 °F - 48.9 °F 38% 29.87 in 10.0 mi SE 6.9 mph - N/A   Clear
4:53 PM 75.9 °F - 48.9 °F 38% 29.86 in 10.0 mi SE 10.4 mph - N/A   Partly Cloudy
5:53 PM 75.0 °F - 48.0 °F 38% 29.86 in 10.0 mi SE 9.2 mph - N/A   Clear
6:53 PM 70.0 °F - 51.1 °F 51% 29.87 in 10.0 mi ESE 10.4 mph - N/A   Mostly Cloudy
7:53 PM 69.1 °F - 52.0 °F 54% 29.88 in 10.0 mi South 8.1 mph - N/A   Mostly Cloudy
8:53 PM 66.0 °F - 48.9 °F 54% 29.88 in 10.0 mi South 9.2 mph - 0.00 in   Clear
9:53 PM 57.9 °F - 51.1 °F 78% 29.90 in 10.0 mi ESE 4.6 mph - N/A   Clear
10:53 PM 57.0 °F - 50.0 °F 77% 29.90 in 10.0 mi ESE 6.9 mph - N/A   Clear
11:53 PM 55.9 °F - 51.1 °F 84% 29.88 in 10.0 mi SE 8.1 mph - N/A   Clear